McCook, NE

12:37 AM CST on January 24, 2018 (GMT -0600)
McCook Municipal

Weather History for KMCK - September, 2013

Change the Weather History Date:

Friday, September 27, 2013

  Actual Average Record
Temperature  
Mean Temperature 63 °F 59 °F  
Max Temperature 76 °F 74 °F 95 °F (1956)
Min Temperature 50 °F 44 °F 31 °F (1964)
Degree Days  
Heating Degree Days 2    
Growing Degree Days 12 (Base 50)    
Moisture  
Dew Point 55 °F    
Average Humidity 76    
Maximum Humidity 94    
Minimum Humidity 48    
Precipitation  
Precipitation 1.28 in 0.05 in 1.28 in (2013)
Month to date precipitation 2.35 1.30  
Year to date precipitation 11.52 19.01  
Sea Level Pressure  
Sea Level Pressure 29.69 in    
Wind  
Wind Speed 14 mph (NNW)    
Max Wind Speed 30 mph    
Max Gust Speed 51 mph    
Visibility 8 miles    
Events Fog , Rain , Thunderstorm    
T = Trace of Precipitation, MM = Missing Value Source: NWS Daily Summary

Daily Weather History Graph

Daily Weather History Graph

Search for Another Location

Airport or City:

Trip Planner

Search our weather history database for the weather conditions in past years. The results will help you decide how hot, cold, wet, or windy it might be!

Date:

Astronomy

Sep. 27, 2013 Rise Set
Actual Time 7:35 AM CDT 7:30 PM CDT
Civil Twilight 7:07 AM CDT 7:57 PM CDT
Nautical Twilight 6:36 AM CDT 8:29 PM CDT
Astronomical Twilight 6:04 AM CDT 9:01 PM CDT
Moon 12:31 AM CDT (9/27) 3:10 PM CDT (9/27)
Length of Visible Light 12h 49m
Length of Day
11h 55m
Last Quarter, 45% of the Moon is Illuminated
Sep 27
Last Quarter
Oct 4
New
Oct 11
First Quarter
Oct 18
Full
Oct 26
Last Quarter

Hourly Weather History & Observations

Time (CDT) Temp. Dew Point Humidity Pressure Visibility Wind Dir Wind Speed Gust Speed Precip Events Conditions
12:53 AM 75.0 °F 55.9 °F 51% 29.57 in 10.0 mi SSE 16.1 mph - N/A   Clear
1:53 AM 75.9 °F 55.0 °F 48% 29.56 in 10.0 mi South 19.6 mph 27.6 mph N/A   Clear
2:53 AM 75.0 °F 54.0 °F 48% 29.56 in 10.0 mi South 18.4 mph 28.8 mph N/A   Clear
3:53 AM 73.9 °F 53.1 °F 48% 29.55 in 10.0 mi South 21.9 mph 32.2 mph N/A   Clear
4:53 AM 73.0 °F 54.0 °F 51% 29.55 in 10.0 mi South 20.7 mph 27.6 mph N/A   Clear
5:53 AM 71.1 °F 54.0 °F 55% 29.57 in 10.0 mi South 15.0 mph 23.0 mph N/A   Clear
6:53 AM 70.0 °F 54.0 °F 57% 29.60 in 10.0 mi South 11.5 mph - N/A   Clear
7:53 AM 69.1 °F 54.0 °F 58% 29.63 in 10.0 mi SSW 11.5 mph - N/A   Clear
8:53 AM 71.1 °F 55.0 °F 57% 29.65 in 10.0 mi SW 10.4 mph 19.6 mph N/A   Clear
9:53 AM 73.0 °F 54.0 °F 51% 29.66 in 10.0 mi WSW 9.2 mph - N/A   Clear
10:53 AM 70.0 °F 51.1 °F 51% 29.69 in 10.0 mi WNW 6.9 mph - N/A   Clear
11:53 AM 62.1 °F 52.0 °F 70% 29.68 in 6.0 mi WNW 12.7 mph 23.0 mph 0.00 in Rain Light Rain
12:53 PM 62.1 °F 53.1 °F 72% 29.70 in 10.0 mi Calm Calm - 0.01 in   Mostly Cloudy
1:53 PM 64.0 °F 54.0 °F 70% 29.72 in 10.0 mi South 3.5 mph - N/A   Overcast
2:53 PM 66.9 °F 54.0 °F 63% 29.70 in 10.0 mi Calm Calm - N/A   Scattered Clouds
3:53 PM 69.1 °F 54.0 °F 58% 29.66 in 10.0 mi North 4.6 mph - N/A   Mostly Cloudy
4:36 PM 69.8 °F 53.6 °F 56% 29.72 in 10.0 mi NNW 4.6 mph - N/A Thunderstorm Thunderstorm
4:47 PM 66.2 °F 55.4 °F 68% 29.74 in 7.0 mi West 8.1 mph - 0.00 in Rain , Thunderstorm Light Rain
4:53 PM 64.9 °F 57.9 °F 78% 29.67 in 3.0 mi NW 8.1 mph - 0.02 in Rain , Thunderstorm Rain
5:08 PM 62.6 °F 59.0 °F 88% 29.73 in 8.0 mi North 5.8 mph - 0.00 in Rain Light Rain
5:12 PM 62.6 °F 59.0 °F 88% 29.73 in 1.8 mi NNW 5.8 mph - 0.05 in Rain , Thunderstorm Light Rain
5:24 PM 62.6 °F 59.0 °F 88% 29.72 in 3.0 mi East 8.1 mph - 0.08 in Rain , Thunderstorm Light Rain
5:36 PM 62.6 °F 59.0 °F 88% 29.68 in 2.5 mi ENE 12.7 mph - 0.11 in Rain , Thunderstorm Rain
5:43 PM 62.6 °F 60.8 °F 94% 29.69 in 5.0 mi East 6.9 mph - 0.11 in Rain , Thunderstorm Light Rain
5:51 PM 62.6 °F 60.8 °F 94% 29.68 in 10.0 mi East 6.9 mph - 0.11 in   Mostly Cloudy
5:53 PM 63.0 °F 61.0 °F 93% 29.63 in 10.0 mi East 8.1 mph - 0.11 in   Mostly Cloudy
6:31 PM 64.4 °F 60.8 °F 88% 29.68 in 10.0 mi NE 10.4 mph - N/A   Mostly Cloudy
6:53 PM 64.0 °F 61.0 °F 90% 29.65 in 10.0 mi NNE 8.1 mph - N/A   Scattered Clouds
7:53 PM 62.1 °F 60.1 °F 93% 29.67 in 10.0 mi NNE 3.5 mph - N/A   Overcast
8:02 PM 62.6 °F 59.0 °F 88% 29.70 in 10.0 mi NNE 5.8 mph - N/A   Overcast
8:31 PM 60.8 °F 57.2 °F 88% 29.67 in 10.0 mi NNE 15.0 mph 18.4 mph N/A   Overcast
8:42 PM 60.8 °F 57.2 °F 88% 29.68 in 10.0 mi North 12.7 mph 21.9 mph N/A Thunderstorm Overcast
8:53 PM 57.9 °F 54.0 °F 87% 29.76 in 1.5 mi WNW 29.9 mph 50.6 mph 0.14 in Rain , Thunderstorm Thunderstorms and Rain
9:00 PM 53.6 °F 51.8 °F 94% 29.76 in 0.2 mi WNW 23.0 mph 39.1 mph 0.42 in Fog , Rain , Thunderstorm Heavy Thunderstorms and Rain
9:06 PM 53.6 °F 51.8 °F 94% 29.75 in 0.5 mi NNW 24.2 mph 36.8 mph 0.51 in Fog , Rain , Thunderstorm Heavy Thunderstorms and Rain
9:14 PM 53.6 °F 51.8 °F 94% 29.77 in 1.0 mi NNW 19.6 mph 35.7 mph 0.68 in Rain , Thunderstorm Heavy Thunderstorms and Rain
9:38 PM 53.6 °F 50.0 °F 88% 29.76 in 2.0 mi NNW 25.3 mph 29.9 mph 0.93 in Rain , Thunderstorm Heavy Thunderstorms and Rain
9:53 PM 53.1 °F 50.0 °F 89% 29.74 in 5.0 mi NW 19.6 mph - 0.96 in Rain , Thunderstorm Thunderstorms and Rain
10:04 PM 51.8 °F 48.2 °F 88% 29.78 in 5.0 mi NNW 29.9 mph 40.3 mph 0.02 in Rain Rain
10:53 PM 51.1 °F 46.9 °F 86% 29.81 in 10.0 mi NNW 23.0 mph 32.2 mph 0.04 in   Overcast
11:43 PM 50.0 °F 46.4 °F 87% 29.85 in 10.0 mi NW 19.6 mph 26.5 mph N/A   Overcast
11:53 PM 50.0 °F 46.9 °F 89% 29.85 in 10.0 mi NW 20.7 mph 27.6 mph N/A   Overcast